Location: Flitcham
(52.8000°N, 0.5667°E)
Time: 20:39:50
(UTC+00:00)

Tsikada Rocket - Pass Details

Date: 15 May 2026
Orbit: 956 x 1009 km, 82.9° (Epoch: 7 June)

Event Time Altitude Azimuth Distance (km) Brightness Sun altitude
Rises 20:36:03 0° 348° (NNW) 3,660 8.1 -6.4°
Reaches altitude 10° 20:38:35 10° 346° (NNW) 2,706 7.3 -6.7°
Maximum altitude 20:44:43 72° 264° (W) 1,006 4.3 -7.3°
Drops below altitude 10° 20:50:49 10° 181° (S) 2,684 5.9 -8.0°
Sets 20:53:18 0° 180° (S) 3,628 6.5 -8.2°
